Weather in Kazakevichevo

Russia / Khabarovsk Krai     48°16′06″N   134°43′55″E
temp.,
°C
wind,
m/s
gust,
m/s
humid.,
%
clouds,
%
prec.,
mm/h
press.,
hPa
HPBL,
m
27 february, sat
sat2701:00−21s239610 0.0 103427
04:00−22s239710 0.0 103427
07:00−22s239735 0.0 103530
10:00−18s349438 0.0 1034142
13:00−13s248448 0.0 1033298
16:00−10sse248270 0.0 1029372
19:00−11se2390100 0.0 102586
22:00−11sse2289100 0.0 102352
28 february, sun
sun2801:00−9s2787100 0.0 1020299
04:00−7ssw41495100 1.8 1018705
07:00−5sw41296100 2.3 1018734
10:00−7wsw4794100 2.8 1018350
13:00−7w5985100 0.0 1020642
16:00−8w5977100 0.0 1021718
19:00−12wsw3585100 0.0 1024127
22:00−15w3388100 0.0 102657
1 march, mon
mon101:00−19w2391100 0.0 102743
04:00−22w238950 0.0 102931
07:00−23wsw34880 0.0 103150
10:00−20wsw48810 0.0 1032404
13:00−16w59650 0.0 1032999
16:00−14w59670 0.0 10321346
19:00−19sw348525 0.0 103350
22:00−22sw238819 0.0 103335
2 march, tue
tue201:00−23ssw229099 0.0 103324
04:00−23sw119698 0.0 103320
07:00−25wsw119665 0.0 103320
10:00−19sw228232 0.0 1033130
13:00−16w36710 0.0 1032628
16:00−16wnw35700 0.0 1030619
19:00−21ssw22870 0.0 103121
22:00−22ssw22840 0.0 103222
3 march, wed
wed301:00−23ssw22880 0.0 103121
04:00−24s22880 0.0 103021
07:00−24s22880 0.0 103021
10:00−19sse23840 0.0 1029135
13:00−13sse247025 0.0 1025397
16:00−12se247562 0.0 1022463
19:00−14s1187100 0.0 102020
22:00−13ssw259699 0.3 1019221